Private Wetterstation Ehingen
Wetterdaten: aktuell Samstag, 25.03.2017 12:40
Datum Zeit Temperatur Luftfeuchte Luftdruck Regen Wind Richtung Richtung Sonnenschein Taupunkt Windchill Windben
25.03.2017 12:40 13,4 C 58 % 1022,7 hPa 0,0 l/m 13,3 km/h (3 Bft) O 81 5 min 5,3 C 9,9 C 21,4 km/h (4 Bft)
25.03.2017 12:35 13,2 C 58 % 1022,7 hPa 0,0 l/m 16,2 km/h (3 Bft) N-NO 19 5 min 5,1 C 8,6 C 20,4 km/h (4 Bft)
25.03.2017 12:30 13,1 C 57 % 1022,8 hPa 0,0 l/m 16,2 km/h (3 Bft) NO 55 5 min 4,8 C 8,5 C 22,3 km/h (4 Bft)
25.03.2017 12:25 13,0 C 57 % 1022,8 hPa 0,0 l/m 17,6 km/h (3 Bft) O-NO 69 5 min 4,7 C 7,9 C 23,3 km/h (4 Bft)
25.03.2017 12:20 12,9 C 58 % 1022,8 hPa 0,0 l/m 16,2 km/h (3 Bft) N-NO 21 5 min 4,8 C 8,2 C 27,1 km/h (5 Bft)
25.03.2017 12:15 12,7 C 59 % 1022,9 hPa 0,0 l/m 14,3 km/h (3 Bft) NO 39 5 min 4,9 C 8,7 C 23,3 km/h (4 Bft)
25.03.2017 12:10 12,4 C 60 % 1024,0 hPa 0,0 l/m 14,3 km/h (3 Bft) NO 49 5 min 4,9 C 8,3 C 17,1 km/h (3 Bft)
25.03.2017 12:05 12,1 C 59 % 1024,0 hPa 0,0 l/m 14,3 km/h (3 Bft) N-NO 12 5 min 4,3 C 8,0 C 17,6 km/h (3 Bft)
25.03.2017 12:00 12,0 C 60 % 1024,1 hPa 0,0 l/m 16,2 km/h (3 Bft) O-NO 57 5 min 4,5 C 7,1 C 18,5 km/h (3 Bft)
25.03.2017 11:55 11,8 C 60 % 1024,1 hPa 0,0 l/m 16,2 km/h (3 Bft) O-NO 72 5 min 4,3 C 6,9 C 21,4 km/h (4 Bft)
25.03.2017 11:50 11,7 C 60 % 1024,1 hPa 0,0 l/m 19,5 km/h (3 Bft) NO 46 5 min 4,2 C 5,6 C 21,4 km/h (4 Bft)
25.03.2017 11:45 11,7 C 61 % 1024,1 hPa 0,0 l/m 15,2 km/h (3 Bft) NO 56 5 min 4,4 C 7,1 C 28,0 km/h (5 Bft)
25.03.2017 11:40 11,6 C 61 % 1024,2 hPa 0,0 l/m 15,2 km/h (3 Bft) O 86 5 min 4,3 C 7,0 C 22,3 km/h (4 Bft)
25.03.2017 11:35 11,4 C 62 % 1024,2 hPa 0,0 l/m 16,2 km/h (3 Bft) O 83 5 min 4,4 C 6,4 C 18,5 km/h (3 Bft)
25.03.2017 11:30 11,3 C 63 % 1024,2 hPa 0,0 l/m 15,2 km/h (3 Bft) NO 56 5 min 4,5 C 6,6 C 23,3 km/h (4 Bft)
25.03.2017 11:25 11,3 C 63 % 1024,2 hPa 0,0 l/m 16,2 km/h (3 Bft) NO 52 5 min 4,5 C 6,2 C 27,1 km/h (5 Bft)
25.03.2017 11:20 11,2 C 63 % 1024,2 hPa 0,0 l/m 17,1 km/h (3 Bft) O-NO 64 5 min 4,4 C 5,8 C 23,3 km/h (4 Bft)
25.03.2017 11:15 10,9 C 66 % 1024,3 hPa 0,0 l/m 12,4 km/h (2 Bft) NO 53 5 min 4,8 C 7,4 C 17,6 km/h (3 Bft)
25.03.2017 11:10 10,7 C 67 % 1024,4 hPa 0,0 l/m 11,4 km/h (2 Bft) O-NO 76 5 min 4,8 C 7,6 C 17,6 km/h (3 Bft)
25.03.2017 11:05 10,4 C 67 % 1024,4 hPa 0,0 l/m 12,4 km/h (2 Bft) NO 53 5 min 4,5 C 6,8 C 17,1 km/h (3 Bft)
25.03.2017 11:00 10,2 C 67 % 1024,5 hPa 0,0 l/m 11,4 km/h (2 Bft) O 82 5 min 4,4 C 7,1 C 17,1 km/h (3 Bft)
_ Min-Zeit 05:35 12:30 12:40 - 07:15 - - - 08:00 05:00 07:10
Minimum _ 5,3 C 57 % 1022,7 hPa - 6,7 km/h (2 Bft) - - - 1,9 C 0,0 C 8,6 km/h (2 Bft)
_ Max-Zeit 12:40 02:25 02:30 12:40 11:50 - - 12:40 12:40 12:40 11:45
Maximum _ 13,4 C 87 % 1027,5 hPa 0,0 l/m 19,5 km/h
NO (3 Bft)
- - 5 min 5,3 C 9,9 C 28,0 km/h
NO (5 Bft)
Durchschnitt _ 7,1 C 78 % 1025,8 hPa #0,0 l/m 12,2 km/h (2 Bft) O-NO - #3:15 h 3,4 C 3,3 C 17,5 km/h (3 Bft)